Location: ČR
(50.0000°N, 15.0000°E)
Time: 20:25:14
(UTC+00:00)

Vanguard 3 - Pass Details

Date: 22 October 2021
Orbit: 508 x 3260 km, 33.4° (Epoch: 04 December)

Event Time Altitude Azimuth Distance (km) Brightness Sun altitude
Rises 20:23:18 0° 259° (W) 4,636 11.4 -41.7°
Reaches altitude 10° 20:26:28 10° 248° (WSW) 4,014 10.9 -42.1°
Enters shadow 20:32:13 26° 217° (SW) 3,482 10.2 -42.8°
Maximum altitude 20:35:41 29° 194° (SSW) 3,605 - -43.2°
Drops below altitude 10° 20:48:58 10° 144° (SE) 5,854 - -44.7°
Sets 20:54:57 0° 135° (SE) 7,105 - -45.3°
